User: anonymous   Login
Location: *
(51.1248°S, 108.4023°W)
Time: 06:39:30
(UTC+00:00)
Language:

RESURS O1 DEB - Orbit

View from above orbital plane
View from above orbital plane
View from above satellite
View from above satellite

Ground track
Ground track

The orbit data is extracted from the following two-line orbital elements,

1 48503U 94074EE  22028.09677393  .00011236  00000-0  13073-2 0  9991
2 48503  97.8948  80.3120 0003147 115.8302 244.3238 14.85458968 47832
Epoch (UTC): 28 January 2022 02:19:21
Eccentricity: 0.0003147
inclination: 97.8948°
perigee height: 610 km
apogee height: 614 km
right ascension of ascending node: 80.3120°
argument of perigee: 115.8302°
revolutions per day: 14.85458968
mean anomaly at epoch: 244.3238°
orbit number at epoch: 4783

The dashed part of the orbit path shows where the satellite is in the earth's shadow,  

DLR